contact:dominique.lefevre@mio.osupytheas.fr, maurice.libes@osupytheas.fr, didier.mallarino@osupytheas.fr
Project:EMSO http://www.emso-fr.org/EMSO-France
Depth: 2436.0 m
Title:EMSO Ligure Ouest : Data MII capteur CSTAR
DateTime,Latitude,Longitude,Instrument_Serial,Reference_Counts,Signal_Counts,Corrected_Signal_raw_counts,Calculated_Beam_c_inverse_meters,Internal_thermistor_counts
DateTime,Latitude,Longitude,Instrument_Serial,Reference_Counts,Signal_Counts,Corrected_Signal_raw_counts,Calculated_Beam_c_inverse_meters,Internal_thermistor_counts
2022-09-16T00:00:12,42.805,6.029,CST-1368DR,4584,5084,11807,01.118,551
2022-09-16T00:03:14,42.805,6.029,CST-1368DR,4584,5086,11811,01.117,551
2022-09-16T00:06:16,42.805,6.029,CST-1368DR,4584,5086,11812,01.117,551
2022-09-16T00:09:17,42.805,6.029,CST-1368DR,4584,5086,11811,01.117,551
2022-09-16T00:12:19,42.805,6.029,CST-1368DR,4584,5085,11808,01.118,551
2022-09-16T00:15:20,42.805,6.029,CST-1368DR,4584,5085,11808,01.118,551
2022-09-16T00:18:22,42.805,6.029,CST-1368DR,4584,5084,11807,01.118,551
2022-09-16T00:21:23,42.805,6.029,CST-1368DR,4584,5085,11808,01.118,551
2022-09-16T00:24:25,42.805,6.029,CST-1368DR,4584,5085,11810,01.117,551
2022-09-16T00:27:27,42.805,6.029,CST-1368DR,4584,5085,11809,01.118,551
2022-09-16T00:30:28,42.805,6.029,CST-1368DR,4584,5085,11810,01.117,551
2022-09-16T00:33:30,42.805,6.029,CST-1368DR,4584,5086,11811,01.117,551
2022-09-16T00:36:31,42.805,6.029,CST-1368DR,4584,5084,11807,01.118,551
2022-09-16T00:39:33,42.805,6.029,CST-1368DR,4584,5085,11809,01.118,551
2022-09-16T00:42:34,42.805,6.029,CST-1368DR,4584,5086,11811,01.117,551
2022-09-16T00:45:36,42.805,6.029,CST-1368DR,4584,5085,11810,01.117,551
2022-09-16T00:48:38,42.805,6.029,CST-1368DR,4584,5086,11812,01.117,551
2022-09-16T00:51:39,42.805,6.029,CST-1368DR,4584,5088,11815,01.116,551
2022-09-16T00:54:41,42.805,6.029,CST-1368DR,4584,5086,11812,01.117,551
2022-09-16T00:57:42,42.805,6.029,CST-1368DR,4584,5087,11813,01.116,551
2022-09-16T01:00:44,42.805,6.029,CST-1368DR,4584,5086,11812,01.117,551
2022-09-16T01:03:46,42.805,6.029,CST-1368DR,4584,5086,11811,01.117,551
2022-09-16T01:06:47,42.805,6.029,CST-1368DR,4584,5088,11817,01.115,551
2022-09-16T01:09:49,42.805,6.029,CST-1368DR,4584,5085,11810,01.117,551
2022-09-16T01:12:50,42.805,6.029,CST-1368DR,4584,5088,11815,01.116,551
2022-09-16T01:15:52,42.805,6.029,CST-1368DR,4584,5087,11814,01.116,551
2022-09-16T01:18:53,42.805,6.029,CST-1368DR,4584,5087,11814,01.116,551
2022-09-16T01:21:55,42.805,6.029,CST-1368DR,4584,5087,11814,01.116,551
2022-09-16T01:24:57,42.805,6.029,CST-1368DR,4584,5087,11813,01.116,551
2022-09-16T01:27:58,42.805,6.029,CST-1368DR,4584,5087,11813,01.116,551
2022-09-16T01:31:00,42.805,6.029,CST-1368DR,4584,5084,11807,01.118,551
2022-09-16T01:34:01,42.805,6.029,CST-1368DR,4584,5084,11807,01.118,551
2022-09-16T01:37:03,42.805,6.029,CST-1368DR,4584,5087,11814,01.116,551
2022-09-16T01:40:04,42.805,6.029,CST-1368DR,4584,5083,11804,01.119,551
2022-09-16T01:43:06,42.805,6.029,CST-1368DR,4584,5087,11813,01.116,551
2022-09-16T01:46:08,42.805,6.029,CST-1368DR,4584,5086,11812,01.117,551
2022-09-16T01:49:09,42.805,6.029,CST-1368DR,4584,5087,11813,01.116,551
2022-09-16T01:52:11,42.805,6.029,CST-1368DR,4584,5085,11810,01.117,551
2022-09-16T01:55:12,42.805,6.029,CST-1368DR,4584,5087,11814,01.116,551
2022-09-16T01:58:14,42.805,6.029,CST-1368DR,4584,5088,11815,01.116,551
2022-09-16T02:01:16,42.805,6.029,CST-1368DR,4584,5088,11815,01.116,551
2022-09-16T02:04:17,42.805,6.029,CST-1368DR,4584,5088,11815,01.116,551
2022-09-16T02:07:19,42.805,6.029,CST-1368DR,4584,5089,11817,01.115,551
2022-09-16T02:10:20,42.805,6.029,CST-1368DR,4583,5089,11820,01.114,551
2022-09-16T02:13:22,42.805,6.029,CST-1368DR,4584,5088,11815,01.116,551
2022-09-16T02:16:23,42.805,6.029,CST-1368DR,4584,5084,11807,01.118,551
2022-09-16T02:19:25,42.805,6.029,CST-1368DR,4584,5088,11817,01.115,551
2022-09-16T02:22:27,42.805,6.029,CST-1368DR,4584,5089,11819,01.114,551
2022-09-16T02:25:28,42.805,6.029,CST-1368DR,4583,5087,11816,01.115,551
2022-09-16T02:28:30,42.805,6.029,CST-1368DR,4584,5087,11813,01.116,551
2022-09-16T02:31:31,42.805,6.029,CST-1368DR,4584,5087,11814,01.116,551
2022-09-16T02:34:33,42.805,6.029,CST-1368DR,4584,5086,11812,01.117,551
2022-09-16T02:37:34,42.805,6.029,CST-1368DR,4584,5089,11817,01.115,551
2022-09-16T02:40:36,42.805,6.029,CST-1368DR,4583,5089,11821,01.114,551
2022-09-16T02:43:38,42.805,6.029,CST-1368DR,4584,5087,11813,01.116,551
2022-09-16T02:46:39,42.805,6.029,CST-1368DR,4584,5088,11817,01.115,551
2022-09-16T02:49:41,42.805,6.029,CST-1368DR,4584,5088,11815,01.116,551
2022-09-16T02:52:42,42.805,6.029,CST-1368DR,4584,5089,11817,01.115,551
2022-09-16T02:55:44,42.805,6.029,CST-1368DR,4584,5088,11815,01.116,551
2022-09-16T02:58:46,42.805,6.029,CST-1368DR,4584,5089,11818,01.115,551
2022-09-16T03:01:47,42.805,6.029,CST-1368DR,4584,5090,11820,01.114,551
2022-09-16T03:04:49,42.805,6.029,CST-1368DR,4583,5089,11820,01.114,551
2022-09-16T03:07:50,42.805,6.029,CST-1368DR,4583,5090,11822,01.113,551
2022-09-16T03:10:52,42.805,6.029,CST-1368DR,4584,5089,11817,01.115,551
2022-09-16T03:13:53,42.805,6.029,CST-1368DR,4583,5089,11821,01.114,551
2022-09-16T03:16:55,42.805,6.029,CST-1368DR,4583,5089,11821,01.114,551
2022-09-16T03:19:57,42.805,6.029,CST-1368DR,4584,5089,11819,01.114,551
2022-09-16T03:22:58,42.805,6.029,CST-1368DR,4584,5089,11817,01.115,551
2022-09-16T03:26:00,42.805,6.029,CST-1368DR,4584,5089,11818,01.115,551
2022-09-16T03:29:01,42.805,6.029,CST-1368DR,4584,5087,11814,01.116,551
2022-09-16T03:32:03,42.805,6.029,CST-1368DR,4584,5088,11817,01.115,551
2022-09-16T03:35:04,42.805,6.029,CST-1368DR,4584,5089,11818,01.115,551
2022-09-16T03:38:06,42.805,6.029,CST-1368DR,4583,5089,11821,01.114,551
2022-09-16T03:41:08,42.805,6.029,CST-1368DR,4584,5089,11817,01.115,551
2022-09-16T03:44:09,42.805,6.029,CST-1368DR,4583,5087,11817,01.115,551
2022-09-16T03:47:11,42.805,6.029,CST-1368DR,4583,5088,11817,01.115,551
2022-09-16T03:50:12,42.805,6.029,CST-1368DR,4583,5088,11817,01.115,551
2022-09-16T03:53:14,42.805,6.029,CST-1368DR,4583,5088,11818,01.115,551
2022-09-16T03:56:16,42.805,6.029,CST-1368DR,4583,5088,11818,01.115,551
2022-09-16T03:59:17,42.805,6.029,CST-1368DR,4583,5088,11817,01.115,551
2022-09-16T04:02:19,42.805,6.029,CST-1368DR,4583,5087,11817,01.115,551
2022-09-16T04:05:20,42.805,6.029,CST-1368DR,4583,5091,11824,01.113,551
2022-09-16T04:08:22,42.805,6.029,CST-1368DR,4583,5090,11823,01.113,551
2022-09-16T04:11:23,42.805,6.029,CST-1368DR,4583,5088,11818,01.115,551
2022-09-16T04:14:25,42.805,6.029,CST-1368DR,4583,5089,11820,01.114,551
2022-09-16T04:17:27,42.805,6.029,CST-1368DR,4583,5089,11820,01.114,551
2022-09-16T04:20:28,42.805,6.029,CST-1368DR,4583,5088,11819,01.114,551
2022-09-16T04:23:30,42.805,6.029,CST-1368DR,4583,5088,11819,01.114,551
2022-09-16T04:26:31,42.805,6.029,CST-1368DR,4583,5088,11818,01.115,551
2022-09-16T04:29:33,42.805,6.029,CST-1368DR,4583,5089,11821,01.114,551
2022-09-16T04:32:34,42.805,6.029,CST-1368DR,4583,5088,11818,01.115,551
2022-09-16T04:35:36,42.805,6.029,CST-1368DR,4583,5088,11817,01.115,551
2022-09-16T04:38:38,42.805,6.029,CST-1368DR,4583,5087,11816,01.115,551
2022-09-16T04:41:39,42.805,6.029,CST-1368DR,4583,5087,11817,01.115,551
2022-09-16T04:44:41,42.805,6.029,CST-1368DR,4583,5088,11818,01.115,551
2022-09-16T04:47:42,42.805,6.029,CST-1368DR,4583,5086,11813,01.116,551
2022-09-16T04:50:44,42.805,6.029,CST-1368DR,4583,5087,11817,01.115,551
2022-09-16T04:53:46,42.805,6.029,CST-1368DR,4583,5088,11818,01.115,551
2022-09-16T04:56:47,42.805,6.029,CST-1368DR,4583,5088,11817,01.115,551
2022-09-16T04:59:49,42.805,6.029,CST-1368DR,4583,5089,11820,01.114,551
2022-09-16T05:02:50,42.805,6.029,CST-1368DR,4583,5086,11813,01.116,551
2022-09-16T05:05:52,42.805,6.029,CST-1368DR,4583,5087,11817,01.115,551
2022-09-16T05:08:53,42.805,6.029,CST-1368DR,4583,5088,11817,01.115,551
2022-09-16T05:11:55,42.805,6.029,CST-1368DR,4583,5089,11820,01.114,551
2022-09-16T05:14:57,42.805,6.029,CST-1368DR,4583,5087,11817,01.115,551
2022-09-16T05:17:58,42.805,6.029,CST-1368DR,4583,5087,11816,01.115,551
2022-09-16T05:21:00,42.805,6.029,CST-1368DR,4583,5089,11821,01.114,551
2022-09-16T05:24:01,42.805,6.029,CST-1368DR,4583,5087,11816,01.115,551
2022-09-16T05:27:03,42.805,6.029,CST-1368DR,4583,5086,11814,01.116,551
2022-09-16T05:30:04,42.805,6.029,CST-1368DR,4583,5086,11814,01.116,551
2022-09-16T05:33:06,42.805,6.029,CST-1368DR,4583,5087,11816,01.115,551
2022-09-16T05:36:08,42.805,6.029,CST-1368DR,4583,5088,11818,01.115,551
2022-09-16T05:39:09,42.805,6.029,CST-1368DR,4583,5087,11817,01.115,551
2022-09-16T05:42:11,42.805,6.029,CST-1368DR,4583,5086,11814,01.116,551
2022-09-16T05:45:12,42.805,6.029,CST-1368DR,4583,5087,11817,01.115,551
2022-09-16T05:48:14,42.805,6.029,CST-1368DR,4583,5088,11818,01.115,551
2022-09-16T05:51:15,42.805,6.029,CST-1368DR,4583,5088,11818,01.115,551
2022-09-16T05:54:17,42.805,6.029,CST-1368DR,4583,5087,11816,01.115,551
2022-09-16T05:57:19,42.805,6.029,CST-1368DR,4583,5088,11818,01.115,551
2022-09-16T06:00:20,42.805,6.029,CST-1368DR,4583,5087,11817,01.115,551
2022-09-16T06:03:22,42.805,6.029,CST-1368DR,4583,5088,11819,01.114,551
2022-09-16T06:06:23,42.805,6.029,CST-1368DR,4583,5088,11818,01.115,551
2022-09-16T06:09:25,42.805,6.029,CST-1368DR,4583,5087,11815,01.116,551
2022-09-16T06:12:27,42.805,6.029,CST-1368DR,4583,5086,11813,01.116,551
2022-09-16T06:15:28,42.805,6.029,CST-1368DR,4583,5086,11813,01.116,551
2022-09-16T06:18:30,42.805,6.029,CST-1368DR,4583,5087,11816,01.115,551
2022-09-16T06:21:31,42.805,6.029,CST-1368DR,4583,5082,11805,01.119,551
2022-09-16T06:24:33,42.805,6.029,CST-1368DR,4583,5088,11818,01.115,551
2022-09-16T06:27:34,42.805,6.029,CST-1368DR,4583,5088,11818,01.115,551
2022-09-16T06:30:36,42.805,6.029,CST-1368DR,4583,5088,11818,01.115,551
2022-09-16T06:33:38,42.805,6.029,CST-1368DR,4583,5088,11818,01.115,551
2022-09-16T06:36:39,42.805,6.029,CST-1368DR,4583,5087,11816,01.115,551
2022-09-16T06:39:41,42.805,6.029,CST-1368DR,4583,5088,11817,01.115,551
2022-09-16T06:42:42,42.805,6.029,CST-1368DR,4583,5087,11816,01.115,551
2022-09-16T06:45:44,42.805,6.029,CST-1368DR,4583,5088,11818,01.115,551
2022-09-16T06:48:45,42.805,6.029,CST-1368DR,4583,5087,11817,01.115,551
2022-09-16T06:51:47,42.805,6.029,CST-1368DR,4583,5087,11816,01.115,551
2022-09-16T06:54:49,42.805,6.029,CST-1368DR,4583,5087,11816,01.115,551
2022-09-16T06:57:50,42.805,6.029,CST-1368DR,4583,5088,11818,01.115,551
2022-09-16T07:00:52,42.805,6.029,CST-1368DR,4583,5088,11818,01.115,551
2022-09-16T07:03:53,42.805,6.029,CST-1368DR,4583,5088,11817,01.115,551
2022-09-16T07:06:55,42.805,6.029,CST-1368DR,4583,5088,11817,01.115,551
2022-09-16T07:09:57,42.805,6.029,CST-1368DR,4583,5088,11818,01.115,551
2022-09-16T07:12:58,42.805,6.029,CST-1368DR,4583,5088,11818,01.115,551
2022-09-16T07:16:00,42.805,6.029,CST-1368DR,4583,5087,11816,01.115,551
2022-09-16T07:19:01,42.805,6.029,CST-1368DR,4583,5087,11816,01.115,551
2022-09-16T07:22:03,42.805,6.029,CST-1368DR,4583,5088,11817,01.115,551
2022-09-16T07:25:04,42.805,6.029,CST-1368DR,4583,5088,11818,01.115,551
2022-09-16T07:28:06,42.805,6.029,CST-1368DR,4583,5087,11816,01.115,551
2022-09-16T07:31:08,42.805,6.029,CST-1368DR,4583,5087,11815,01.116,551
2022-09-16T07:34:09,42.805,6.029,CST-1368DR,4583,5088,11817,01.115,551
2022-09-16T07:37:11,42.805,6.029,CST-1368DR,4583,5088,11818,01.115,551
2022-09-16T07:40:12,42.805,6.029,CST-1368DR,4583,5087,11817,01.115,551
2022-09-16T07:43:14,42.805,6.029,CST-1368DR,4583,5087,11816,01.115,551
2022-09-16T07:46:16,42.805,6.029,CST-1368DR,4583,5087,11817,01.115,551
2022-09-16T07:49:17,42.805,6.029,CST-1368DR,4583,5088,11819,01.114,551
2022-09-16T07:52:19,42.805,6.029,CST-1368DR,4583,5087,11817,01.115,551
2022-09-16T07:55:20,42.805,6.029,CST-1368DR,4583,5088,11819,01.114,551
2022-09-16T07:58:22,42.805,6.029,CST-1368DR,4583,5085,11812,01.117,551
2022-09-16T08:01:23,42.805,6.029,CST-1368DR,4583,5086,11814,01.116,551
2022-09-16T08:04:25,42.805,6.029,CST-1368DR,4583,5087,11816,01.115,551
2022-09-16T08:07:27,42.805,6.029,CST-1368DR,4583,5088,11817,01.115,551
2022-09-16T08:10:28,42.805,6.029,CST-1368DR,4583,5087,11815,01.116,551
2022-09-16T08:13:30,42.805,6.029,CST-1368DR,4583,5086,11813,01.116,551
2022-09-16T08:16:31,42.805,6.029,CST-1368DR,4583,5087,11816,01.115,551
2022-09-16T08:19:33,42.805,6.029,CST-1368DR,4583,5087,11817,01.115,551
2022-09-16T08:22:34,42.805,6.029,CST-1368DR,4583,5087,11817,01.115,551
2022-09-16T08:25:36,42.805,6.029,CST-1368DR,4583,5086,11813,01.116,551
2022-09-16T08:28:38,42.805,6.029,CST-1368DR,4583,5086,11814,01.116,551
2022-09-16T08:31:39,42.805,6.029,CST-1368DR,4583,5088,11817,01.115,551
2022-09-16T08:34:41,42.805,6.029,CST-1368DR,4583,5087,11816,01.115,551
2022-09-16T08:37:42,42.805,6.029,CST-1368DR,4583,5086,11814,01.116,551
2022-09-16T08:40:44,42.805,6.029,CST-1368DR,4582,5084,11812,01.117,551
2022-09-16T08:43:45,42.805,6.029,CST-1368DR,4582,5086,11816,01.115,551
2022-09-16T08:46:47,42.805,6.029,CST-1368DR,4582,5087,11819,01.114,551
2022-09-16T08:49:49,42.805,6.029,CST-1368DR,4583,5087,11816,01.115,551
2022-09-16T08:52:50,42.805,6.029,CST-1368DR,4583,5085,11811,01.117,551
2022-09-16T08:55:52,42.805,6.029,CST-1368DR,4583,5086,11814,01.116,551
2022-09-16T08:58:53,42.805,6.029,CST-1368DR,4582,5086,11817,01.115,551
2022-09-16T09:01:55,42.805,6.029,CST-1368DR,4582,5086,11817,01.115,551
2022-09-16T09:04:57,42.805,6.029,CST-1368DR,4582,5083,11808,01.118,551
2022-09-16T09:07:58,42.805,6.029,CST-1368DR,4583,5084,11810,01.117,551
2022-09-16T09:11:00,42.805,6.029,CST-1368DR,4583,5085,11810,01.117,551
2022-09-16T09:14:01,42.805,6.029,CST-1368DR,4583,5085,11812,01.117,551
2022-09-16T09:17:03,42.805,6.029,CST-1368DR,4582,5087,11818,01.115,551
2022-09-16T09:20:04,42.805,6.029,CST-1368DR,4582,5085,11814,01.116,551
2022-09-16T09:23:06,42.805,6.029,CST-1368DR,4582,5086,11816,01.115,551
2022-09-16T09:26:08,42.805,6.029,CST-1368DR,4582,5084,11811,01.117,551
2022-09-16T09:29:09,42.805,6.029,CST-1368DR,4582,5083,11809,01.118,551
2022-09-16T09:32:11,42.805,6.029,CST-1368DR,4582,5082,11806,01.119,551
2022-09-16T09:35:12,42.805,6.029,CST-1368DR,4582,5082,11808,01.118,551
2022-09-16T09:38:14,42.805,6.029,CST-1368DR,4582,5082,11806,01.119,551
2022-09-16T09:41:15,42.805,6.029,CST-1368DR,4582,5084,11811,01.117,551
2022-09-16T09:44:17,42.805,6.029,CST-1368DR,4582,5081,11804,01.119,551
2022-09-16T09:47:19,42.805,6.029,CST-1368DR,4582,5081,11805,01.119,551
2022-09-16T09:50:20,42.805,6.029,CST-1368DR,4582,5080,11802,01.120,551
2022-09-16T09:53:22,42.805,6.029,CST-1368DR,4582,5082,11808,01.118,551
2022-09-16T09:56:23,42.805,6.029,CST-1368DR,4582,5082,11806,01.119,551
2022-09-16T09:59:25,42.805,6.029,CST-1368DR,4582,5081,11804,01.119,551
2022-09-16T10:02:27,42.805,6.029,CST-1368DR,4582,5081,11804,01.119,551
2022-09-16T10:05:28,42.805,6.029,CST-1368DR,4582,5088,11820,01.114,551
2022-09-16T10:08:30,42.805,6.029,CST-1368DR,4582,5081,11805,01.119,551
2022-09-16T10:11:31,42.805,6.029,CST-1368DR,4582,5082,11806,01.119,551
2022-09-16T10:14:33,42.805,6.029,CST-1368DR,4582,5083,11808,01.118,551
2022-09-16T10:17:34,42.805,6.029,CST-1368DR,4582,5082,11808,01.118,551
2022-09-16T10:20:36,42.805,6.029,CST-1368DR,4582,5084,11811,01.117,551
2022-09-16T10:23:38,42.805,6.029,CST-1368DR,4582,5083,11810,01.117,551
2022-09-16T10:26:39,42.805,6.029,CST-1368DR,4582,5083,11809,01.118,551
2022-09-16T10:29:41,42.805,6.029,CST-1368DR,4582,5084,11811,01.117,551
2022-09-16T10:32:42,42.805,6.029,CST-1368DR,4582,5084,11811,01.117,551
2022-09-16T10:35:44,42.805,6.029,CST-1368DR,4582,5083,11809,01.118,551
2022-09-16T10:38:45,42.805,6.029,CST-1368DR,4583,5084,11809,01.118,551
2022-09-16T10:41:47,42.805,6.029,CST-1368DR,4583,5083,11807,01.118,551
2022-09-16T10:44:49,42.805,6.029,CST-1368DR,4583,5083,11807,01.118,551
2022-09-16T10:47:50,42.805,6.029,CST-1368DR,4583,5083,11807,01.118,551
2022-09-16T10:50:52,42.805,6.029,CST-1368DR,4583,5082,11803,01.120,551
2022-09-16T10:53:53,42.805,6.029,CST-1368DR,4583,5083,11806,01.119,551
2022-09-16T10:56:55,42.805,6.029,CST-1368DR,4583,5083,11807,01.118,551
2022-09-16T10:59:57,42.805,6.029,CST-1368DR,4583,5082,11805,01.119,551
2022-09-16T11:02:58,42.805,6.029,CST-1368DR,4582,5081,11805,01.119,551
2022-09-16T11:06:00,42.805,6.029,CST-1368DR,4582,5081,11805,01.119,551
2022-09-16T11:09:01,42.805,6.029,CST-1368DR,4582,5081,11805,01.119,551
2022-09-16T11:12:03,42.805,6.029,CST-1368DR,4583,5082,11803,01.120,551
2022-09-16T11:15:04,42.805,6.029,CST-1368DR,4583,5080,11800,01.121,551
2022-09-16T11:18:06,42.805,6.029,CST-1368DR,4582,5081,11804,01.119,551
2022-09-16T11:21:08,42.805,6.029,CST-1368DR,4583,5081,11803,01.120,551
2022-09-16T11:24:09,42.805,6.029,CST-1368DR,4583,5082,11804,01.119,551
2022-09-16T11:27:11,42.805,6.029,CST-1368DR,4583,5081,11802,01.120,551
2022-09-16T11:30:12,42.805,6.029,CST-1368DR,4583,5080,11800,01.121,551
2022-09-16T11:33:14,42.805,6.029,CST-1368DR,4583,5080,11800,01.121,551
2022-09-16T11:36:15,42.805,6.029,CST-1368DR,4583,5079,11798,01.121,551
2022-09-16T11:39:17,42.805,6.029,CST-1368DR,4582,5081,11805,01.119,551
2022-09-16T11:42:19,42.805,6.029,CST-1368DR,4582,5080,11803,01.120,551
2022-09-16T11:45:20,42.805,6.029,CST-1368DR,4583,5080,11800,01.121,551
2022-09-16T11:48:22,42.805,6.029,CST-1368DR,4582,5080,11802,01.120,551
2022-09-16T11:51:23,42.805,6.029,CST-1368DR,4583,5081,11803,01.120,551
2022-09-16T11:54:25,42.805,6.029,CST-1368DR,4583,5081,11802,01.120,551
2022-09-16T11:57:28,42.805,6.029,CST-1368DR,4583,5081,11802,01.120,551
2022-09-16T12:00:30,42.805,6.029,CST-1368DR,4583,5081,11801,01.120,551
2022-09-16T12:03:32,42.805,6.029,CST-1368DR,4583,5081,11802,01.120,551
2022-09-16T12:06:33,42.805,6.029,CST-1368DR,4583,5082,11805,01.119,551
2022-09-16T12:09:35,42.805,6.029,CST-1368DR,4583,5081,11802,01.120,551
2022-09-16T12:12:36,42.805,6.029,CST-1368DR,4583,5081,11802,01.120,551
2022-09-16T12:15:38,42.805,6.029,CST-1368DR,4583,5082,11804,01.119,551
2022-09-16T12:18:39,42.805,6.029,CST-1368DR,4583,5078,11796,01.122,551
2022-09-16T12:21:41,42.805,6.029,CST-1368DR,4583,5080,11800,01.121,551
2022-09-16T12:24:43,42.805,6.029,CST-1368DR,4583,5080,11800,01.121,551
2022-09-16T12:27:44,42.805,6.029,CST-1368DR,4583,5080,11799,01.121,551
2022-09-16T12:35:06,42.805,6.029,CST-1368DR,4581,5080,11805,01.119,551
2022-09-16T12:38:08,42.805,6.029,CST-1368DR,4582,5080,11801,01.120,551
2022-09-16T12:41:10,42.805,6.029,CST-1368DR,4582,5081,11804,01.119,551
2022-09-16T12:44:11,42.805,6.029,CST-1368DR,4582,5075,11790,01.124,551
2022-09-16T12:47:13,42.805,6.029,CST-1368DR,4583,5081,11802,01.120,551
2022-09-16T12:50:14,42.805,6.029,CST-1368DR,4583,5081,11801,01.120,551
2022-09-16T12:53:16,42.805,6.029,CST-1368DR,4583,5081,11803,01.120,551
2022-09-16T12:56:17,42.805,6.029,CST-1368DR,4582,5080,11803,01.120,551
2022-09-16T12:59:19,42.805,6.029,CST-1368DR,4582,5086,11817,01.115,551
2022-09-16T13:05:06,42.805,6.029,CST-1368DR,4583,5083,11806,01.119,551
2022-09-16T13:08:08,42.805,6.029,CST-1368DR,4582,5082,11806,01.119,551
2022-09-16T13:11:09,42.805,6.029,CST-1368DR,4582,5082,11806,01.119,551
2022-09-16T13:14:11,42.805,6.029,CST-1368DR,4582,5081,11805,01.119,551
2022-09-16T13:17:12,42.805,6.029,CST-1368DR,4582,5081,11804,01.119,551
2022-09-16T13:20:14,42.805,6.029,CST-1368DR,4582,5080,11801,01.120,551
2022-09-16T13:23:16,42.805,6.029,CST-1368DR,4582,5078,11798,01.121,551
2022-09-16T13:26:17,42.805,6.029,CST-1368DR,4582,5081,11804,01.119,551
2022-09-16T13:29:19,42.805,6.029,CST-1368DR,4582,5080,11802,01.120,551
2022-09-16T13:32:20,42.805,6.029,CST-1368DR,4582,5080,11802,01.120,551
2022-09-16T13:35:22,42.805,6.029,CST-1368DR,4582,5080,11803,01.120,551
2022-09-16T13:38:23,42.805,6.029,CST-1368DR,4582,5081,11805,01.119,551
2022-09-16T13:41:25,42.805,6.029,CST-1368DR,4582,5081,11804,01.119,551
2022-09-16T13:44:27,42.805,6.029,CST-1368DR,4582,5079,11801,01.120,551
2022-09-16T13:47:28,42.805,6.029,CST-1368DR,4583,5079,11798,01.121,551
2022-09-16T13:50:30,42.805,6.029,CST-1368DR,4582,5079,11799,01.121,551
2022-09-16T13:53:31,42.805,6.029,CST-1368DR,4582,5078,11798,01.121,551
2022-09-16T13:56:33,42.805,6.029,CST-1368DR,4582,5080,11801,01.120,551
2022-09-16T13:59:34,42.805,6.029,CST-1368DR,4582,5080,11801,01.120,551
2022-09-16T14:02:36,42.805,6.029,CST-1368DR,4582,5080,11802,01.120,551
2022-09-16T14:05:38,42.805,6.029,CST-1368DR,4582,5079,11800,01.121,551
2022-09-16T14:08:39,42.805,6.029,CST-1368DR,4582,5079,11801,01.120,551
2022-09-16T14:11:41,42.805,6.029,CST-1368DR,4582,5079,11801,01.120,551
2022-09-16T14:14:42,42.805,6.029,CST-1368DR,4582,5079,11799,01.121,551
2022-09-16T14:17:44,42.805,6.029,CST-1368DR,4582,5078,11798,01.121,551
2022-09-16T14:20:46,42.805,6.029,CST-1368DR,4582,5078,11798,01.121,551
2022-09-16T14:23:47,42.805,6.029,CST-1368DR,4582,5084,11811,01.117,551
2022-09-16T14:26:49,42.805,6.029,CST-1368DR,4582,5074,11788,01.125,551
2022-09-16T14:29:50,42.805,6.029,CST-1368DR,4582,5081,11804,01.119,551
2022-09-16T14:32:52,42.805,6.029,CST-1368DR,4582,5079,11801,01.120,551
2022-09-16T14:35:53,42.805,6.029,CST-1368DR,4582,5079,11799,01.121,551
2022-09-16T14:38:55,42.805,6.029,CST-1368DR,4582,5080,11801,01.120,551
2022-09-16T14:41:57,42.805,6.029,CST-1368DR,4582,5079,11799,01.121,551
2022-09-16T14:44:58,42.805,6.029,CST-1368DR,4582,5079,11800,01.121,551
2022-09-16T14:48:00,42.805,6.029,CST-1368DR,4582,5075,11790,01.124,551
2022-09-16T14:51:01,42.805,6.029,CST-1368DR,4582,5077,11796,01.122,551
2022-09-16T14:54:03,42.805,6.029,CST-1368DR,4582,5078,11797,01.122,551
2022-09-16T14:57:04,42.805,6.029,CST-1368DR,4582,5064,11765,01.133,551
2022-09-16T15:00:06,42.805,6.029,CST-1368DR,4582,5078,11797,01.122,551
2022-09-16T15:03:08,42.805,6.029,CST-1368DR,4582,5077,11796,01.122,551
2022-09-16T15:06:09,42.805,6.029,CST-1368DR,4582,5076,11794,01.123,551
2022-09-16T15:09:11,42.805,6.029,CST-1368DR,4582,5078,11797,01.122,551
2022-09-16T15:12:12,42.805,6.029,CST-1368DR,4582,5078,11797,01.122,551
2022-09-16T15:15:14,42.805,6.029,CST-1368DR,4582,5079,11801,01.120,551
2022-09-16T15:18:16,42.805,6.029,CST-1368DR,4582,5080,11801,01.120,551
2022-09-16T15:21:17,42.805,6.029,CST-1368DR,4582,5079,11801,01.120,550
2022-09-16T15:24:19,42.805,6.029,CST-1368DR,4582,5078,11798,01.121,551
2022-09-16T15:27:20,42.805,6.029,CST-1368DR,4582,5078,11798,01.121,551
2022-09-16T15:30:22,42.805,6.029,CST-1368DR,4582,5079,11799,01.121,551
2022-09-16T15:33:23,42.805,6.029,CST-1368DR,4582,5079,11800,01.121,551
2022-09-16T15:36:25,42.805,6.029,CST-1368DR,4582,5079,11799,01.121,551
2022-09-16T15:39:27,42.805,6.029,CST-1368DR,4582,5078,11798,01.121,551
2022-09-16T15:42:28,42.805,6.029,CST-1368DR,4582,5079,11800,01.121,551
2022-09-16T15:45:30,42.805,6.029,CST-1368DR,4582,5080,11801,01.120,551
2022-09-16T15:48:31,42.805,6.029,CST-1368DR,4582,5080,11802,01.120,551
2022-09-16T15:51:33,42.805,6.029,CST-1368DR,4582,5079,11799,01.121,551
2022-09-16T15:54:35,42.805,6.029,CST-1368DR,4582,5079,11800,01.121,551
2022-09-16T15:57:36,42.805,6.029,CST-1368DR,4582,5080,11801,01.120,551
2022-09-16T16:00:38,42.805,6.029,CST-1368DR,4582,5080,11801,01.120,551
2022-09-16T16:03:39,42.805,6.029,CST-1368DR,4582,5079,11800,01.121,551
2022-09-16T16:06:41,42.805,6.029,CST-1368DR,4582,5080,11802,01.120,551
2022-09-16T16:09:42,42.805,6.029,CST-1368DR,4582,5079,11801,01.120,551
2022-09-16T16:12:44,42.805,6.029,CST-1368DR,4582,5078,11798,01.121,551
2022-09-16T16:15:46,42.805,6.029,CST-1368DR,4582,5078,11797,01.122,551
2022-09-16T16:18:47,42.805,6.029,CST-1368DR,4582,5078,11797,01.122,551
2022-09-16T16:21:49,42.805,6.029,CST-1368DR,4582,5079,11800,01.121,551
2022-09-16T16:24:50,42.805,6.029,CST-1368DR,4582,5079,11800,01.121,551
2022-09-16T16:27:52,42.805,6.029,CST-1368DR,4582,5078,11798,01.121,551
2022-09-16T16:30:53,42.805,6.029,CST-1368DR,4582,5078,11797,01.122,551
2022-09-16T16:33:55,42.805,6.029,CST-1368DR,4582,5078,11798,01.121,551
2022-09-16T16:36:57,42.805,6.029,CST-1368DR,4582,5079,11801,01.120,551
2022-09-16T16:39:58,42.805,6.029,CST-1368DR,4582,5066,11769,01.131,551
2022-09-16T16:43:00,42.805,6.029,CST-1368DR,4582,5073,11786,01.126,551